ENT4045 EPPO-HEGN

Flight info

Callsign ENT4045
Flight time N/A
Altitude 37000
Route XIDNA L617 REGLI DCT DEMOP DCT BUDOP DCT NAVOD DCT ADORU UG80 EKI UL854 KULAR UT39 TOMBI M855 RASDA A16 CVO L315 HGD
Aircraft B38M/M-SDE1FGHILORVWXY/HB1

Departure

Time 2026-05-04 12:54
Airport Poznań-Ławica Airport (EPPO)

Arrival

Time N/A
Airport Hurghada International Airport (HEGN)
Time Latitude Longitude Altitude Speed Heading
2026-05-04 12:37 52.41583 16.82733 275 ft 0 kts 182°
2026-05-04 12:44 52.41590 16.82733 304 ft 2 kts 180°
2026-05-04 12:45 52.41607 16.82734 302 ft 2 kts 183°
2026-05-04 12:45 52.41623 16.82736 302 ft 2 kts 184°
2026-05-04 12:45 52.41640 16.82738 303 ft 2 kts 186°
2026-05-04 12:45 52.41656 16.82740 303 ft 2 kts 160°
2026-05-04 12:46 52.41667 16.82721 304 ft 2 kts 111°
2026-05-04 12:46 52.41671 16.82695 306 ft 2 kts 98°
2026-05-04 12:46 52.41673 16.82669 304 ft 2 kts 95°
2026-05-04 12:46 52.41674 16.82646 304 ft 1 kts 91°
2026-05-04 12:47 52.41674 16.82643 304 ft 0 kts 90°
2026-05-04 12:48 52.41673 16.82658 304 ft 2 kts 92°
2026-05-04 12:48 52.41671 16.82705 304 ft 6 kts 95°
2026-05-04 12:49 52.41667 16.82811 305 ft 12 kts 95°
2026-05-04 12:49 52.41648 16.82971 303 ft 15 kts 103°
2026-05-04 12:49 52.41622 16.83153 304 ft 18 kts 102°
2026-05-04 12:49 52.41594 16.83362 303 ft 20 kts 103°
2026-05-04 12:50 52.41574 16.83511 302 ft 9 kts 101°
2026-05-04 12:50 52.41567 16.83626 302 ft 12 kts 94°
2026-05-04 12:50 52.41561 16.83781 298 ft 15 kts 92°
2026-05-04 12:50 52.41574 16.83887 299 ft 10 kts 52°
2026-05-04 12:51 52.41630 16.83975 299 ft 12 kts 30°
2026-05-04 12:51 52.41703 16.84023 298 ft 5 kts 20°
2026-05-04 12:51 52.41740 16.84046 302 ft 0 kts 20°
2026-05-04 12:51 52.41741 16.84046 302 ft 0 kts 20°
2026-05-04 12:52 52.41743 16.84048 302 ft 1 kts 20°
2026-05-04 12:52 52.41749 16.84051 301 ft 1 kts 20°
2026-05-04 12:52 52.41758 16.84057 301 ft 2 kts 20°
2026-05-04 12:52 52.41770 16.84064 300 ft 2 kts 20°
2026-05-04 12:53 52.41787 16.84074 300 ft 3 kts 19°
2026-05-04 12:53 52.41822 16.84056 302 ft 8 kts 316°
2026-05-04 12:53 52.41850 16.83947 303 ft 13 kts 287°
2026-05-04 12:53 52.41915 16.83605 308 ft 64 kts 287°
2026-05-04 12:54 52.42125 16.82525 309 ft 132 kts 288°
2026-05-04 12:54 52.42332 16.81435 316 ft 169 kts 287°
2026-05-04 12:54 52.42846 16.78834 1182 ft 184 kts 288°
2026-05-04 12:54 52.43255 16.76803 2073 ft 189 kts 286°
2026-05-04 12:55 52.43674 16.74658 2746 ft 208 kts 286°
2026-05-04 12:55 52.44095 16.72305 3480 ft 221 kts 285°
2026-05-04 12:55 52.44518 16.69878 4301 ft 225 kts 284°
2026-05-04 12:55 52.44965 16.67449 5337 ft 223 kts 285°
2026-05-04 12:56 52.45436 16.64953 6057 ft 235 kts 285°
2026-05-04 12:56 52.45923 16.62347 6811 ft 243 kts 284°
2026-05-04 12:56 52.46206 16.59615 7574 ft 244 kts 264°
2026-05-04 12:56 52.45747 16.56959 8399 ft 245 kts 238°
2026-05-04 12:57 52.44616 16.54892 9346 ft 242 kts 217°
2026-05-04 12:57 52.43661 16.53978 10068 ft 237 kts 206°
2026-05-04 12:57 52.42040 16.53309 10711 ft 253 kts 185°
2026-05-04 12:57 52.39603 16.54057 11164 ft 285 kts 169°
2026-05-04 12:58 52.37621 16.54976 11492 ft 306 kts 168°
2026-05-04 12:58 52.36209 16.55647 11686 ft 320 kts 168°
2026-05-04 12:58 52.33998 16.56672 11954 ft 340 kts 168°
2026-05-04 12:58 52.33278 16.57022 12046 ft 346 kts 167°
2026-05-04 12:59 52.30922 16.58224 12451 ft 359 kts 167°
2026-05-04 12:59 52.28520 16.59440 13170 ft 362 kts 167°
2026-05-04 12:59 52.26088 16.60661 13831 ft 367 kts 167°
2026-05-04 12:59 52.23624 16.61895 14466 ft 371 kts 167°
2026-05-04 13:00 52.21141 16.63135 15093 ft 376 kts 167°
2026-05-04 13:00 52.18624 16.64390 15726 ft 380 kts 167°
2026-05-04 13:00 52.16102 16.65647 16338 ft 384 kts 167°
2026-05-04 13:00 52.13592 16.67249 16929 ft 392 kts 156°
2026-05-04 13:01 52.12767 16.67926 17152 ft 393 kts 158°
2026-05-04 13:01 52.11440 16.68972 17471 ft 395 kts 158°
2026-05-04 13:01 52.08931 16.70903 18041 ft 400 kts 158°
2026-05-04 13:01 52.06424 16.72802 18565 ft 404 kts 159°
2026-05-04 13:02 52.03860 16.74725 19102 ft 406 kts 159°
2026-05-04 13:02 52.01287 16.76643 19664 ft 408 kts 159°
2026-05-04 13:02 51.98692 16.78573 20175 ft 411 kts 159°
2026-05-04 13:02 51.96099 16.80499 20691 ft 414 kts 159°
2026-05-04 13:03 51.93455 16.82459 21192 ft 417 kts 159°
2026-05-04 13:03 51.90802 16.84425 21712 ft 419 kts 158°
2026-05-04 13:03 51.88133 16.86399 22201 ft 422 kts 158°
2026-05-04 13:03 51.85483 16.88356 22712 ft 425 kts 158°
2026-05-04 13:04 51.82763 16.90362 23201 ft 428 kts 158°
2026-05-04 13:04 51.80066 16.92349 23651 ft 431 kts 158°
2026-05-04 13:04 51.77298 16.94385 24040 ft 434 kts 158°
2026-05-04 13:04 51.74563 16.96395 24421 ft 437 kts 158°
2026-05-04 13:05 51.71787 16.98432 24794 ft 439 kts 158°
2026-05-04 13:05 51.68972 17.00312 25160 ft 441 kts 162°
2026-05-04 13:05 51.66094 17.02078 25532 ft 444 kts 162°
2026-05-04 13:05 51.63231 17.03855 25895 ft 446 kts 162°
2026-05-04 13:06 51.60307 17.05685 26258 ft 449 kts 162°
2026-05-04 13:06 51.57383 17.07514 26621 ft 451 kts 162°
2026-05-04 13:06 51.54450 17.09347 26962 ft 454 kts 161°
2026-05-04 13:06 51.51494 17.11193 27306 ft 456 kts 161°
2026-05-04 13:07 51.48526 17.13026 27634 ft 459 kts 162°
2026-05-04 13:07 51.45536 17.14861 27936 ft 462 kts 162°
2026-05-04 13:07 51.42526 17.16708 28282 ft 464 kts 162°
2026-05-04 13:07 51.39532 17.18542 28608 ft 466 kts 162°
2026-05-04 13:08 51.36492 17.20403 28936 ft 469 kts 162°
2026-05-04 13:08 51.33439 17.22268 29273 ft 470 kts 162°
2026-05-04 13:08 51.30368 17.24143 29721 ft 470 kts 162°
2026-05-04 13:08 51.27334 17.25991 30163 ft 469 kts 162°
2026-05-04 13:09 51.24269 17.27857 30539 ft 468 kts 162°
2026-05-04 13:09 51.21251 17.29692 30897 ft 467 kts 162°
2026-05-04 13:09 51.18203 17.31541 31281 ft 467 kts 162°
2026-05-04 13:09 51.15161 17.33383 31656 ft 466 kts 162°
2026-05-04 13:10 51.12127 17.35217 32038 ft 464 kts 162°
2026-05-04 13:10 51.09138 17.37021 32427 ft 463 kts 162°
2026-05-04 13:10 51.06128 17.38836 32801 ft 462 kts 162°
2026-05-04 13:10 51.03125 17.40644 33155 ft 461 kts 162°
2026-05-04 13:11 51.00128 17.42446 33501 ft 460 kts 162°
2026-05-04 13:11 50.97130 17.44246 33839 ft 460 kts 162°
2026-05-04 13:11 50.94134 17.46042 34132 ft 459 kts 162°
2026-05-04 13:11 50.91146 17.47831 34409 ft 459 kts 162°
2026-05-04 13:12 50.88152 17.49622 34682 ft 459 kts 162°
2026-05-04 13:12 50.85189 17.51397 34952 ft 458 kts 162°
2026-05-04 13:12 50.82214 17.53180 35206 ft 458 kts 162°
2026-05-04 13:12 50.79208 17.54979 35463 ft 458 kts 162°
2026-05-04 13:13 50.76258 17.56736 35710 ft 457 kts 162°
2026-05-04 13:13 50.73280 17.58505 35957 ft 457 kts 162°
2026-05-04 13:13 50.70287 17.60280 36185 ft 456 kts 162°
2026-05-04 13:13 50.67335 17.62028 36406 ft 456 kts 162°
2026-05-04 13:14 50.64349 17.63793 36618 ft 456 kts 162°
2026-05-04 13:14 50.61415 17.65527 36827 ft 455 kts 162°
2026-05-04 13:14 50.58446 17.67278 36992 ft 456 kts 162°
2026-05-04 13:15 50.52489 17.70785 36948 ft 454 kts 162°
2026-05-04 13:15 50.46572 17.74259 36968 ft 455 kts 162°
2026-05-04 13:16 50.40642 17.77732 36967 ft 455 kts 162°
2026-05-04 13:16 50.34731 17.81185 36959 ft 455 kts 162°
2026-05-04 13:17 50.28767 17.84660 36980 ft 456 kts 162°
2026-05-04 13:17 50.22829 17.88112 36978 ft 456 kts 162°
2026-05-04 13:18 50.16886 17.91557 36972 ft 456 kts 162°
2026-05-04 13:18 50.10949 17.94991 36983 ft 457 kts 162°
2026-05-04 13:19 50.04977 17.98438 36983 ft 457 kts 161°
2026-05-04 13:19 50.02139 18.00727 36955 ft 459 kts 146°
2026-05-04 13:19 49.99594 18.03685 37009 ft 460 kts 146°
2026-05-04 13:20 49.94402 18.09599 36986 ft 462 kts 146°
2026-05-04 13:20 49.89240 18.15563 36995 ft 462 kts 146°
2026-05-04 13:21 49.84101 18.21496 37032 ft 464 kts 146°
2026-05-04 13:21 49.78922 18.27464 37013 ft 461 kts 145°
2026-05-04 13:22 49.73754 18.33399 37014 ft 464 kts 146°
2026-05-04 13:22 49.68580 18.39328 37007 ft 464 kts 146°
2026-05-04 13:23 49.63374 18.45276 37021 ft 467 kts 145°
2026-05-04 13:23 49.58161 18.51215 37009 ft 464 kts 145°
2026-05-04 13:24 49.52973 18.57110 37015 ft 464 kts 145°
2026-05-04 13:24 49.47808 18.62963 37014 ft 464 kts 145°
2026-05-04 13:25 49.39972 18.71814 37042 ft 467 kts 145°
2026-05-04 13:25 49.34772 18.77668 37011 ft 465 kts 146°
2026-05-04 13:26 49.29507 18.83579 37038 ft 470 kts 146°
2026-05-04 13:26 49.24252 18.89464 37033 ft 465 kts 145°
2026-05-04 13:27 49.19019 18.95306 37048 ft 467 kts 145°
2026-05-04 13:27 49.13808 19.01108 37027 ft 463 kts 145°
2026-05-04 13:28 49.08566 19.06931 37052 ft 467 kts 145°
2026-05-04 13:28 49.03303 19.12761 37046 ft 466 kts 145°
2026-05-04 13:29 48.98060 19.18552 37071 ft 468 kts 145°
2026-05-04 13:29 48.92770 19.24382 37068 ft 469 kts 145°
2026-05-04 13:30 48.87489 19.30183 37054 ft 468 kts 145°
2026-05-04 13:30 48.82211 19.35969 37062 ft 467 kts 145°
2026-05-04 13:31 48.76980 19.41685 37065 ft 464 kts 145°
2026-05-04 13:31 48.71709 19.47432 37077 ft 467 kts 145°
2026-05-04 13:32 48.66457 19.53143 37061 ft 467 kts 144°
2026-05-04 13:32 48.61144 19.58905 37081 ft 470 kts 144°
2026-05-04 13:33 48.55849 19.64631 37075 ft 466 kts 144°
2026-05-04 13:33 48.50553 19.70345 37088 ft 468 kts 144°
2026-05-04 13:34 48.45299 19.75998 37060 ft 466 kts 144°
2026-05-04 13:34 48.39998 19.81687 37061 ft 466 kts 144°
2026-05-04 13:35 48.32101 19.90135 37069 ft 466 kts 144°
2026-05-04 13:36 48.26800 19.95790 37072 ft 467 kts 144°
2026-05-04 13:36 48.21492 20.01438 37067 ft 466 kts 144°